Change the Weather History Date:

Tuesday, September 4, 2012

  Actual Average Record
Temperature  
Mean Temperature 70 °F -  
Max Temperature 75 °F 72 °F 84 °F (2008)
Min Temperature 64 °F 55 °F 44 °F (1997)
Cooling Degree Days 4    
Growing Degree Days 20 (Base 50)    
Moisture  
Dew Point 65 °F    
Average Humidity 88    
Maximum Humidity 94    
Minimum Humidity 83    
Precipitation  
Precipitation 0.00 in - - ()
Sea Level Pressure  
Sea Level Pressure 30.05 in    
Wind  
Wind Speed 5 mph (SSE)    
Max Wind Speed 10 mph    
Max Gust Speed 16 mph    
Visibility 8 miles    
Events      
Averages and records for this station are not official NWS values.
T = Trace of Precipitation, MM = Missing Value Source: NWS Daily Summary

Daily Weather History Graph

Daily Weather History Graph

Search for Another Location

Airport or City:

Trip Planner

Search our weather history database for the weather conditions in past years. The results will help you decide how hot, cold, wet, or windy it might be!

Date:

Astronomy

Sep. 04, 2012 Rise Set
Actual Time 6:22 AM EDT 7:19 PM EDT
Civil Twilight 5:53 AM EDT 7:47 PM EDT
Nautical Twilight 5:20 AM EDT 8:21 PM EDT
Astronomical Twilight 4:45 AM EDT 8:56 PM EDT
Moon 9:07 PM EDT (9/4) 10:30 AM EDT (9/4)
Length of Visible Light 13h 54m
Length of Day
12h 57m
Waning Gibbous, 84% of the Moon is Illuminated
Sep 4
Waning Gibbous
Sep 8
Last Quarter
Sep 15
New
Sep 22
First Quarter
Sep 29
Full

Hourly Weather History & Observations

Time (EDT) Temp. Dew Point Humidity Pressure Visibility Wind Dir Wind Speed Gust Speed Precip Events Conditions
12:15 AM 66.2 °F 60.8 °F 83% 30.17 in 10.0 mi ESE 5.8 mph - N/A   Overcast
12:35 AM 66.2 °F 60.8 °F 83% 30.17 in 10.0 mi East 3.5 mph - N/A   Overcast
12:55 AM 66.2 °F 60.8 °F 83% 30.17 in 10.0 mi ESE 3.5 mph - N/A   Overcast
1:15 AM 66.2 °F 60.8 °F 83% 30.16 in 10.0 mi SE 4.6 mph - N/A   Overcast
1:35 AM 66.2 °F 60.8 °F 83% 30.15 in 10.0 mi SE 5.8 mph - N/A   Overcast
1:55 AM 64.4 °F 60.8 °F 88% 30.15 in 10.0 mi SE 5.8 mph - N/A   Overcast
2:15 AM 64.4 °F 60.8 °F 88% 30.14 in 10.0 mi ESE 3.5 mph - N/A   Overcast
2:35 AM 64.4 °F 60.8 °F 88% 30.13 in 10.0 mi ESE 4.6 mph - N/A   Overcast
2:55 AM 64.4 °F 60.8 °F 88% 30.13 in 10.0 mi ESE 6.9 mph - N/A   Overcast
3:15 AM 64.4 °F 60.8 °F 88% 30.12 in 10.0 mi Calm Calm - N/A   Overcast
3:35 AM 64.4 °F 62.6 °F 94% 30.12 in 10.0 mi East 4.6 mph - N/A   Overcast
3:55 AM 64.4 °F 62.6 °F 94% 30.11 in 10.0 mi East 4.6 mph - N/A   Overcast
4:15 AM 64.4 °F 62.6 °F 94% 30.11 in 10.0 mi Calm Calm - N/A   Overcast
4:35 AM 64.4 °F 62.6 °F 94% 30.11 in 10.0 mi East 5.8 mph - N/A   Overcast
4:55 AM 64.4 °F 62.6 °F 94% 30.10 in 10.0 mi East 6.9 mph - N/A   Overcast
5:45 AM 64.4 °F 62.6 °F 94% 30.10 in 7.0 mi ESE 4.6 mph - N/A   Overcast
5:55 AM 66.2 °F 62.6 °F 88% 30.10 in 10.0 mi ESE 6.9 mph - N/A   Overcast
6:45 AM 64.4 °F 62.6 °F 94% 30.11 in 5.0 mi East 4.6 mph - N/A   Overcast
7:45 AM 66.2 °F 62.6 °F 88% 30.10 in 7.0 mi SE 5.8 mph - N/A   Mostly Cloudy
8:12 AM 66.2 °F 64.4 °F 94% 30.09 in 7.0 mi SE 4.6 mph - N/A   Mostly Cloudy
8:45 AM 68.0 °F 64.4 °F 88% 30.09 in 7.0 mi SE 4.6 mph - N/A   Mostly Cloudy
9:45 AM 71.6 °F 66.2 °F 83% 30.07 in 7.0 mi East 4.6 mph - N/A   Mostly Cloudy
10:45 AM 71.6 °F 66.2 °F 83% 30.07 in 7.0 mi Calm Calm - N/A   Mostly Cloudy
11:45 AM 71.6 °F 66.2 °F 83% 30.07 in 8.0 mi SSE 4.6 mph - N/A   Overcast
12:50 PM 73.4 °F 68.0 °F 83% 30.05 in 8.0 mi South 6.9 mph - N/A   Overcast
1:45 PM 75.2 °F 69.8 °F 83% 30.02 in 10.0 mi South 6.9 mph - N/A   Overcast
2:45 PM 75.2 °F 69.8 °F 83% 30.00 in 10.0 mi SSW 6.9 mph - N/A   Overcast
3:45 PM 75.2 °F 69.8 °F 83% 29.99 in 10.0 mi SSW 6.9 mph - N/A   Overcast
4:45 PM 75.2 °F 69.8 °F 83% 29.98 in 10.0 mi SSW 9.2 mph - N/A   Overcast
5:45 PM 73.4 °F 69.8 °F 88% 29.97 in 8.0 mi South 9.2 mph - N/A   Mostly Cloudy
6:45 PM 73.4 °F 69.8 °F 88% 29.96 in 8.0 mi South 9.2 mph - N/A   Overcast
7:45 PM 73.4 °F 69.8 °F 88% 29.95 in 10.0 mi SSW 5.8 mph - N/A   Overcast
8:45 PM 73.4 °F 69.8 °F 88% 29.95 in 10.0 mi South 6.9 mph - N/A   Overcast
9:15 PM 73.4 °F 69.8 °F 88% 29.95 in 7.0 mi South 6.9 mph - N/A   Overcast
9:35 PM 73.4 °F 69.8 °F 88% 29.94 in 7.0 mi South 8.1 mph - N/A   Overcast
9:55 PM 73.4 °F 69.8 °F 88% 29.94 in 7.0 mi South 8.1 mph - N/A   Overcast
10:15 PM 73.4 °F 69.8 °F 88% 29.92 in 5.0 mi South 9.2 mph - N/A   Overcast
10:35 PM 73.4 °F 71.6 °F 94% 29.92 in 5.0 mi South 10.4 mph - N/A   Overcast
11:15 PM 73.4 °F 71.6 °F 94% 29.91 in 5.0 mi SSW 9.2 mph - N/A   Overcast
11:55 PM 73.4 °F 71.6 °F 94% 29.90 in 6.0 mi South 9.2 mph 16.1 mph N/A   Overcast